Zurück zum Katalog

DMSP 5D-3 F17 DEB

AktivSSO
NORAD 29600·DEBRIS·🇺🇸 United States

Gestartet Nov 4, 2006 von Vandenberg Space Force Base

Loading…

Nächste Überflüge (nächste 24 Stunden)

TLE

AktuellSource: Space-Track

Epoche: Sep 14, 2026, 07:47 UTC

1 29600U 06050BS  26257.32477060  .00001648  00000-0  57957-3 0  9994
2 29600  98.5148 285.9766 0006288 209.4121 213.5762 14.36204532 28130

Verfolge DMSP 5D-3 F17 DEB in Echtzeit mit AllMySat

Download on the App Store